Regional Weather Roundup
Issued by NWS

Home | Current Version | Previous Version | Text Only | Print | Product List | Glossary On
Versions: 1 2 3 4 5 6 7 8 9 10 11 12 13 14 15 16 17 18 19 20 21 22 23 24 25 26 27 28 29 30 31 32 33 34 35 36 37 38 39 40 41 42 43 44 45 46 47 48 49 50
000
ASUS43 KLSX 230859
RWRMO

WEATHER SUMMARY FOR MISSOURI
NATIONAL WEATHER SERVICE SPRINGFIELD MO
400 AM CDT SUN JUL 23 2017

NOTE: "FAIR" INDICATES FEW OR NO CLOUDS BELOW 12,000 FEET WITH NO
       SIGNIFICANT WEATHER AND/OR OBSTRUCTIONS TO VISIBILITY.
       CURRENT SKY AND/OR WEATHER CONDITIONS ARE NOT AVAILABLE FOR
       CHILLICOTHE AND FARMINGTON.

MOZ001>031-035>038-043-044-053-054-231000-
...NORTHERN AND WESTERN MISSOURI...

CITY           SKY/WX    TMP DP  RH WIND       PRES   REMARKS
KANSAS CTY INT CLOUDY    71  70  96 S8        29.93R
KANSAS C DTWN  MOCLDY    74  70  87 SW5       29.92R
LEE`S SUMMIT   CLOUDY    71  70  96 S12       29.92F
ST JOSEPH      CLOUDY    72  72 100 CALM      29.90F
CHILLICOTHE      N/A     73  71  93 CALM      29.91F
KIRKSVILLE     CLOUDY    73  68  84 SW8       29.94S

$$
MOZ066>068-077>081-088>096-101>105-231000-
...SOUTHWEST MISSOURI...

CITY           SKY/WX    TMP DP  RH WIND       PRES   REMARKS
SPRINGFIELD    MOCLDY    78  67  68 N9        29.93S
JOPLIN         CLOUDY    78  68  71 NE8       29.94F

$$
MOZ032>034-039>042-045>050-055>058-069>072-231000-
...CENTRAL MISSOURI...

CITY           SKY/WX    TMP DP  RH WIND       PRES   REMARKS
COLUMBIA       LGT RAIN  71  68  90 NE8       29.93F
JEFFERSON CITY RAIN      73  68  84 N23G32    29.86F
ROLLA          CLOUDY    73  67  81 N14G23    29.93S
SEDALIA        CLOUDY    72  69  90 W9G17     29.91R
OSAGE BEACH    CLOUDY    72  67  84 NE8       29.93F THUNDER

$$
MOZ051-052-059>065-231000-
...EAST CENTRAL MISSOURI...

CITY           SKY/WX    TMP DP  RH WIND       PRES   REMARKS
ST LOUIS INTL  TSTM      75  67  76 NW24G38   29.90R
SPIRIT OF STL  LGT RAIN  74  70  87 NW17G33   29.87R
ST CHARLES     CLOUDY    75  67  76 NW32G41   29.87R

$$
MOZ072>076-082>087-097>100-106>115-231000-
...SOUTH CENTRAL AND SOUTHEAST MISSOURI...

CITY           SKY/WX    TMP DP  RH WIND       PRES   REMARKS
CAPE GIRARDEAU CLEAR     79  74  84 SW7       29.82S
FARMINGTON     CLOUDY    84  71  65 W8        29.85S
POPLAR BLUFF   CLEAR     78  76  93 SW3       29.84R
WEST PLAINS    MOCLDY    77  72  84 NW7       29.93R

$$




USA.gov is the U.S. government's official web portal to all federal, state and local government web resources and services.